CZ-4 R/B - Orbit

View from above orbital plane
View from above orbital plane
View from above satellite
View from above satellite

Ground track
Ground track

The orbit data is extracted from the following two-line orbital elements,

1 28059U 03049C   13144.15356632  .00000259  00000-0  75533-4 0  7760
2 28059 098.6998 323.9560 0051826 084.3348 024.6399 14.51883450508134
Epoch (UTC): 24 May 2013 03:41:08
Eccentricity: 0.0051826
inclination: 98.6998°
perigee height: 683 km
apogee height: 756 km
right ascension of ascending node: 323.9560°
argument of perigee: 84.3348°
revolutions per day: 14.51883450
mean anomaly at epoch: 24.6399°
orbit number at epoch: 50813

The dashed part of the orbit path shows where the satellite is in the earth's shadow,  

Developed and maintained by Chris Peat, Heavens-Above GmbH. Please read the updated FAQ before sending e-mail. Imprint. DLR